Неринга

Литва     55°18′19″N   21°00′24″E
темп.,
°C
ветер,
м/с
пор.,
м/с
влажн.,
%
обл.,
%
осадки,
мм/ч
давл.,
гПа
погр.,
м
21 апреля, ср
ср2100:00+6ссз4584100 0.0 101247
03:00+6сз34845 0.0 101142
06:00+6зсз46835 0.0 101067
09:00+6сз34835 0.0 101057
12:00+6зюз44845 0.0 100960
15:00+6зюз58826 0.0 100998
18:00+7зюз6981100 0.0 1008108
21:00+6зюз7128711 0.0 1008222
22 апреля, чт
чт2200:00+6зюз8128598 0.0 1008317
03:00+6юз10137685 0.0 1007579
06:00+5зюз1113745 0.0 10061047
09:00+5юз131483100 0.0 10061127
12:00+5зюз12157794 0.4 10071427
15:00+4зюз131569100 0.4 10091405
18:00+4зюз121473100 0.0 10091366
21:00+5з111275100 0.1 10091122
23 апреля, пт
пт2300:00+5з111278100 0.4 10081167
03:00+4зсз111479100 0.8 10091242
06:00+4зсз10127984 0.3 1009997
09:00+4зсз91180100 0.5 1011958
12:00+3зсз111285100 0.4 1012969
15:00+4зсз121276100 0.8 10141157
18:00+4сз111281100 0.3 1016998
21:00+4сз101181100 0.6 1017985
24 апреля, сб
сб2400:00+4сз101177100 0.4 10171051
03:00+4сз101177100 0.9 10171095
06:00+5сз101172100 0.2 10161043
09:00+5сз91167100 0.3 10171144
12:00+4сз9106998 0.3 10171037
15:00+4сз10116615 0.4 10171357
18:00+4сз11116975 0.1 10171262
21:00+3зсз111398100 0.5 1016706
25 апреля, вс
вс2500:00+4ссз14158499 0.5 10151055
03:00+4ссз141585100 1.1 10161009
06:00+4ссз151676100 0.3 10161415
09:00+4ссз131473100 0.9 10161382
12:00+4сз121367100 0.5 10171450
15:00+3сз111284100 0.8 10171022
18:00+2сз101087100 0.3 1016855
21:00+3зсз897951 0.8 1016942